This is the latest recevied weather packets stored in our database for station/object K5NAN. If no packets are shown the sender has not sent any weather packets the latest 10 day(s).
| Time | Temp. | Humidity | Pressure | Rain* | Wind** | Luminosity | Snow |
|---|---|---|---|---|---|---|---|
| 1778034893 | 20.56° C | 80% | 1005.6 hPa | 0 mm | - | 0 W/m² | - |
| 1778034590 | 20.56° C | 82% | 1005.6 hPa | 0 mm | - | 0 W/m² | - |
| 1778034288 | 21.11° C | 82% | 1005.2 hPa | 0 mm | - | 0 W/m² | - |
| 1778033985 | 21.11° C | 82% | 1005 hPa | 0 mm | - | 0 W/m² | - |
| 1778033682 | 21.67° C | 81% | 1005.2 hPa | 0 mm | - | 0 W/m² | - |
| 1778033379 | 21.67° C | 81% | 1005.3 hPa | 0 mm | - | 0 W/m² | - |
| 1778033077 | 21.67° C | 81% | 1005 hPa | 0 mm | - | 0 W/m² | - |
| 1778032774 | 21.67° C | 81% | 1005.4 hPa | 0 mm | - | 0 W/m² | - |
| 1778032472 | 22.22° C | 80% | 1004.6 hPa | 0 mm | - | 0 W/m² | - |
| 1778032168 | 22.22° C | 80% | 1004.8 hPa | 0 mm | - | 0 W/m² | - |
| 1778031865 | 22.22° C | 81% | 1004.5 hPa | 0 mm | - | 0 W/m² | - |
| 1778031562 | 22.22° C | 82% | 1005.1 hPa | 0 mm | - | 0 W/m² | - |
| 1778031260 | 22.78° C | 81% | 1005.2 hPa | 0 mm | - | 0 W/m² | - |
| 1778030956 | 22.78° C | 80% | 1004.7 hPa | 0 mm | - | 0 W/m² | - |
| 1778030652 | 22.78° C | 80% | 1004.5 hPa | 0 mm | - | 0 W/m² | - |
| 1778030349 | 22.78° C | 79% | 1004.5 hPa | 0 mm | - | 0 W/m² | - |
| 1778030047 | 22.78° C | 78% | 1004.4 hPa | 0 mm | - | 0 W/m² | - |
| 1778029743 | 23.33° C | 76% | 1004.2 hPa | 0 mm | - | 0 W/m² | - |
| 1778029442 | 23.89° C | 75% | 1004.2 hPa | 0 mm | - | 0 W/m² | - |
| 1778029138 | 23.33° C | 75% | 1004.3 hPa | 0 mm | - | 0 W/m² | - |
| 1778028836 | 23.33° C | 76% | 1004.4 hPa | 0 mm | - | 1 W/m² | - |
| 1778028531 | 23.89° C | 79% | 1004.2 hPa | 0 mm | - | 2 W/m² | - |
| 1778028229 | 24.44° C | 85% | 1004.1 hPa | 0 mm | - | 3 W/m² | - |
| 1778027925 | 24.44° C | 87% | 1004.1 hPa | 0 mm | - | 3 W/m² | - |
| 1778027621 | 24.44° C | 88% | 1004.2 hPa | 0 mm | - | 2 W/m² | - |
* Rain latest hour (hover to see other rain measurements)
** Current wind speed in m/s (hover to see current wind gust speed)